Weather Roundup
Issued by NWS

Home | Current Version | Previous Version | Graphics & Text | Print | Product List | Glossary Off
Versions: 1 2 3 4 5 6 7 8 9 10 11 12 13 14 15 16 17 18 19 20 21 22 23 24 25 26 27 28 29 30 31 32 33 34 35 36 37 38 39 40 41 42 43 44 45 46 47 48 49 50

000
NZUS93 KARX 050610
HRRWXR

CURRENT HOURLY OBSERVATIONS ACROSS
MUCH OF THE UPPER MISSISSIPPI VALLEY
NATIONAL WEATHER SERVICE LA CROSSE WI
100 AM CDT THU MAY 05 2016


...SOUTHEAST MINNESOTA...


CITY           SKY/WX    TMP DP  RH WIND       PRES   REMARKS
ROCHESTER      CLEAR     46  25  43 E7        30.00R
ROCHESTER/MAYO FAIR      51  25  36 CALM      30.00S
WINONA         CLEAR     46  32  57 CALM      30.01R
AUSTIN         CLEAR     43  30  61 NE3       30.00R
ALBERT LEA     CLEAR     46  27  46 CALM      30.00R
DODGE CENTER   CLEAR     41  21  45 E5        30.00R
PRESTON        CLEAR     45  25  45 CALM      30.00R
OWATONNA       CLEAR     41  30  65 E3        30.00R
FARIBAULT      CLEAR     39  34  81 CALM      30.00R
$$

...ELSEWHERE IN MINNESOTA...


CITY           SKY/WX    TMP DP  RH WIND       PRES   REMARKS
MINNEAPOLIS    CLEAR     51  28  41 SE7       30.00R
INTNL FALLS    LGT RAIN  46  33  60 CALM      29.94F
DULUTH         CLEAR     38  27  64 CALM      30.00R
RED WING       CLEAR     43  28  56 E3        29.99S
REDWOOD FALLS  CLEAR     53  28  38 CALM      30.00R
MANKATO        CLEAR     48  28  46 CALM      29.99S
WORTHINGTON    CLEAR     47  35  63 W6        30.03R
FAIRMONT       CLEAR     48  30  49 CALM      30.00S
$$

...SOUTHWEST WISCONSIN...


CITY           SKY/WX    TMP DP  RH WIND       PRES   REMARKS
LA CROSSE      CLEAR     48  30  49 N5        29.99R
PRAIRIE DU CHI CLEAR     44  30  58 CALM      29.98S
BOSCOBEL       CLEAR     46  33  60 CALM      29.98R
LONE ROCK      CLEAR     48  32  53 N9        29.97S
PLATTEVILLE    PTCLDY    44  34  68 N12       29.95S
FORT MC COY    CLEAR     35  30  83 CALM      30.00R
CAMP DOUGLAS   CLEAR     38  38  99 CALM      29.98R
MAUSTON-NEW LI CLEAR     41  32  72 NW3       29.98R
VIROQUA        FAIR      44  32  63 NE8       29.98R
WIS DELLS      CLEAR     44  31  62 N6        29.96S
$$

...ELSEWHERE IN WISCONSIN...


CITY           SKY/WX    TMP DP  RH WIND       PRES   REMARKS
MILWAUKEE      MOCLDY    42  33  70 N18G24    29.92S
MADISON        CLEAR     41  33  73 N10       29.95R
GREEN BAY      CLEAR     37  31  78 N6        29.97S WCI  32
EAU CLAIRE     CLEAR     40  29  64 CALM      29.99S
BLACK RVR FLS  FAIR      33  29  85 CALM      29.99S
MEDFORD        CLEAR     36  31  82 N3        29.98S
WAUSAU         CLEAR     41  32  70 CALM      29.96S
WIS RAPIDS     CLEAR     40  30  67 NE6       29.99R
MARSHFIELD     CLEAR     41  31  67 N6        29.97S
RICE LAKE      CLEAR     38  33  84 CALM      30.01S
$$

...NORTHEAST IOWA...


CITY           SKY/WX    TMP DP  RH WIND       PRES   REMARKS
WATERLOO       CLEAR     43  31  62 NE5       29.98R
DUBUQUE        CLEAR     46  32  58 N9        29.95R
DECORAH        CLEAR     48  25  40 NE3       29.98R
MASON CITY     CLEAR     43  28  55 CALM      30.00S
CHARLES CITY   CLEAR     46  28  49 NE7       29.99S
OELWEIN        CLEAR     48  28  46 N9        29.98S
$$

...ELSEWHERE IN IOWA...


CITY           SKY/WX    TMP DP  RH WIND       PRES   REMARKS
DES MOINES     CLEAR     54  34  46 N6        29.99R
IOWA CITY      CLEAR     50  32  50 N7        29.97R
FORT DODGE     CLEAR     45  34  65 CALM      30.01R
MARSHALLTOWN   CLEAR     45  31  58 N7        29.97R
CEDAR RAPIDS   CLEAR     46  34  62 N6        29.96R
$$

...NORTHERN ILLINOIS...


CITY           SKY/WX    TMP DP  RH WIND       PRES   REMARKS
CHICAGO-OHARE  MOCLDY    43  33  68 N22G32    29.88S
CHICAGO-MIDWAY CLOUDY    44  32  62 N20G31    29.87S
MOLINE         CLEAR     51  34  52 NE6       29.92R
ROCKFORD       CLEAR     40  35  83 N6        29.95R
PEORIA         CLEAR     48  38  68 NE12      29.90R
$$

NOTE: "FAIR" INDICATES FEW OR NO CLOUDS BELOW 12,000 FEET WITH NO
SIGNIFICANT WEATHER AND/OR OBSTRUCTIONS TO VISIBILITY. WIND
SPEEDS ARE IN MILES-PER-HOUR.




USA.gov is the U.S. government's official web portal to all federal, state and local government web resources and services.